Location: ?????????
(55.7393°N, 38.5588°E)
Time: 00:39:22
(UTC+00:00)

Daily predictions for brighter satellites

Satellite Brightness Start Highest point End
(mag) Time Altitude Azimuth Time Altitude Azimuth Time Altitude Azimuth
Cosmos 405 3.5 00:09:08 56° NE 00:09:08 56° NE 00:12:06 10° NNE
SL-08 R/B 3.1 00:08:14 60° S 00:09:04 84° WSW 00:13:45 10° NNW
IDEFIX/ARIANE 42P 3.8 00:04:14 10° NNE 00:09:11 39° E 00:12:52 17° SSE
SL-16 R/B 3.5 00:12:20 29° W 00:12:20 29° W 00:16:56 10° NNW
Cosmos 1633 Rocket 2.9 00:07:32 10° NNW 00:11:55 79° W 00:11:56 79° WSW
Cosmos 220 Rocket 4.2 00:11:33 55° SE 00:12:02 59° ESE 00:16:15 10° NNE
Cosmos 1241 Rocket 4.4 00:10:11 48° SW 00:12:07 84° SE 00:18:38 10° NE
IRS-1C 4.5 00:07:00 10° NNE 00:12:19 62° ESE 00:14:40 33° S
Cosmos 1933 Rocket 4.2 00:11:55 10° N 00:16:13 53° ENE 00:20:14 11° SSE
Cosmos 1328 Rocket 4.3 00:14:40 33° SSE 00:16:21 52° E 00:20:41 10° NNE
Cosmos 1666 Rocket 3.6 00:12:33 10° NNW 00:16:42 59° WNW 00:16:42 59° WNW
ARIANE 5 R/B 3.0 00:13:47 10° NNE 00:18:51 55° E 00:21:31 26° SSE
IRS-1D 3.5 00:14:24 10° NNE 00:19:48 79° WNW 00:21:19 48° SSW
CZ-2D R/B 2.5 00:14:47 10° N 00:19:53 46° WNW 00:20:45 42° W
Cosmos 1943 Rocket 4.1 00:17:16 12° WNW 00:20:44 20° NNW 00:24:50 10° NNE
AQUA 4.0 00:18:05 10° N 00:22:43 52° WNW 00:23:15 49° W
Cosmos 1606 2.5 00:24:12 82° NW 00:24:12 82° NW 00:27:56 10° N
Cosmos 1151 Rocket 3.3 00:23:47 41° SSE 00:25:08 66° E 00:29:28 10° NNE
NPP 4.0 00:20:39 10° N 00:25:49 48° WNW 00:26:59 41° W
ATLAS 5 CENTAUR R/B 1.6 00:26:24 56° W 00:27:14 72° NNW 00:32:15 10° NE
Cosmos 2297 Rocket 3.6 00:26:11 10° NW 00:28:49 22° WNW 00:28:49 22° WNW
CBERS-1 4.0 00:27:00 10° NNE 00:32:06 68° WNW 00:33:37 45° SW
Resurs 1-4 Rocket 2.8 00:29:01 10° N 00:33:49 36° WNW 00:34:54 33° W
Cosmos 2082 3.9 00:30:02 10° NW 00:35:29 48° WSW 00:39:00 21° S
Genesis I 3.3 00:38:06 55° WNW 00:38:34 60° NW 00:42:25 10° NE
NOSS 3-4 (A) 4.2 00:32:32 10° NW 00:39:07 63° NNE 00:46:26 10° ESE
CZ-4C R/B 3.6 00:35:37 10° SSE 00:39:11 59° ENE 00:42:43 10° N
NOSS 3-4 (C) 4.2 00:32:39 10° NW 00:39:13 62° NNE 00:46:32 10° ESE
Cosmos 1933 3.2 00:42:24 50° SSW 00:43:25 80° WNW 00:47:32 10° N
Cosmos 2369 Rocket 4.1 00:41:05 11° WNW 00:44:54 21° NNW 00:49:08 10° NNE
Meteor 1-26 Rocket 4.4 00:41:40 17° S 00:45:48 67° E 00:51:12 10° NNE
Meteor 1-25 Rocket 4.3 00:40:56 10° NNW 00:46:40 59° W 00:50:49 19° S
USA 305 4.4 00:46:32 22° S 00:47:46 25° SE 00:51:17 10° E
CZ-2D R/B 3.7 00:45:30 10° NNE 00:49:40 71° ESE 00:52:06 25° S
SJ 16-02 1.8 00:46:25 10° NNW 00:50:48 64° ENE 00:55:10 10° SE
USA 267 3.5 00:44:42 10° ENE 00:51:12 62° SSE 00:54:57 27° SW
IRS-P3 4.1 00:46:11 10° NNE 00:51:31 70° WNW 00:54:12 30° SW
USA 306 4.4 00:50:27 22° S 00:51:48 26° SE 00:55:23 10° E
ASTEX 1 3.4 00:47:50 10° N 00:52:52 86° E 00:56:54 16° S
CZ-4C R/B 3.6 00:47:42 10° WNW 00:53:43 47° NNE 01:00:57 10° E
Cosmos 1697 Rocket 2.8 00:50:48 25° SSW 00:54:06 73° ESE 00:59:44 10° NE
NOSS 2-1 (E) 4.1 00:53:13 32° WNW 00:54:21 41° NNW 00:58:27 10° NE
X-37B 3.2 00:56:52 11° SSE 00:56:52 11° SSE 00:57:20 10° SSE
Cosmos 405 Rocket 4.4 00:53:03 10° NW 00:55:02 21° WNW 00:55:02 21° WNW
CZ-2C R/B 4.0 00:52:16 10° NNE 00:56:55 35° E 01:01:38 10° SSE
Cosmos 1980 Rocket 3.0 00:53:31 14° S 00:58:16 49° ESE 01:03:42 10° NE
Cosmos 389 Rocket 3.1 00:58:26 19° S 01:00:43 54° E 01:04:14 10° NNE
H-2A R/B 2.0 00:57:12 10° SSE 01:01:36 85° WSW 01:06:07 10° NNW
Cosmos 2263 Rocket 2.1 00:56:26 10° NW 01:02:07 87° WSW 01:07:48 10° SSE
ERS-1 4.5 00:57:11 10° NNE 01:02:18 74° WNW 01:05:30 24° SSW
ATLAS 2AS CENTAUR R/B 3.2 00:55:27 10° NW 01:03:14 68° NNE 01:10:25 10° ESE
Meteor 1-14 Rocket 4.1 00:57:35 10° NNW 01:03:14 71° W 01:08:45 10° S
Cosmos 990 Rocket 4.3 00:58:55 10° NNW 01:04:06 68° ENE 01:09:18 10° SE
Cosmos 1602 3.9 01:03:09 10° NNW 01:06:52 47° W 01:08:06 33° SW
ERS-2 2.4 01:03:46 10° SSE 01:07:25 69° ENE 01:11:06 10° NNW
Cosmos 1821 Rocket 4.3 01:01:30 10° NNW 01:07:27 44° W 01:11:56 17° SSW
Iridium 2 3.7 01:04:53 18° S 01:07:35 81° E 01:11:22 10° N
Cosmos 1818 3.8 01:05:33 28° WSW 01:08:23 62° NW 01:13:50 10° NE
Cosmos 1844 Rocket 4.1 01:03:28 10° NNW 01:08:45 39° NE 01:14:02 10° ESE
SL-16 R/B 4.4 01:07:19 10° SSE 01:11:38 23° ESE 01:15:58 10° NE
Cosmos 2227 4.1 01:07:08 10° NW 01:12:48 73° WSW 01:18:25 10° SSE
Spot 4 Rocket 4.0 01:09:46 10° NNE 01:14:57 81° WNW 01:19:15 15° SSW
Cosmos 1470 Rocket 4.2 01:12:31 10° NNW 01:16:34 35° W 01:18:21 25° SW
USA 307 4.0 01:16:13 21° SSW 01:18:26 34° SSE 01:22:18 10° E
USA 308 4.0 01:19:11 20° SSW 01:21:30 35° SSE 01:25:24 10° E
Cosmos 1812 3.6 01:19:00 10° S 01:22:43 49° E 01:26:28 10° NNE
Cosmos 1934 Rocket 4.0 01:16:52 10° NNW 01:22:45 53° W 01:28:35 10° SSW
Meteor 1-5 Rocket 4.0 01:17:55 10° NNW 01:23:15 82° WSW 01:28:36 10° S
Cosmos 1500 3.1 01:20:09 10° NNW 01:24:01 71° W 01:27:50 10° S
Cosmos 2227 Rocket 4.1 01:24:30 10° WNW 01:25:13 12° WNW 01:25:13 12° WNW
IRIDIUM 104 4.3 01:23:43 10° N 01:28:59 89° E 01:34:13 10° S
Cosmos 1666 3.1 01:26:04 10° N 01:29:56 68° ENE 01:33:44 10° SSE
USA 234 4.0 01:24:36 10° S 01:30:07 29° SW 01:35:38 10° WNW
Landsat 5 3.8 01:25:55 10° S 01:30:18 50° W 01:34:41 10° NNW
Cosmos 1238 Rocket 4.2 01:24:08 10° NNW 01:30:35 54° W 01:36:44 10° SSW
ADEOS Rocket 3.1 01:23:53 10° SSE 01:30:39 90° ENE 01:36:45 10° NNW
PKM 4.3 01:28:41 15° W 01:32:11 43° SSW 01:35:30 10° SE
Cosmos 1898 Rocket 3.5 01:26:57 10° NNW 01:32:13 87° WSW 01:37:30 10° SSE
Cosmos 1656 4.1 01:30:38 20° WSW 01:34:09 46° NW 01:39:31 10° NNE
ADEOS II 3.2 01:31:07 10° N 01:35:34 28° NW 01:38:28 18° WSW
Lacrosse 5 2.2 01:32:48 18° SW 01:36:30 58° SSE 01:41:29 10° ENE
Cosmos 1782 3.1 01:34:32 18° SW 01:37:21 49° WNW 01:41:18 10° N
IRIDIUM 114 4.3 01:32:53 10° N 01:38:08 79° W 01:43:21 10° S
Nadezhda 3 Rocket 4.4 01:33:54 16° SW 01:38:34 44° WNW 01:44:26 10° N
CZ-2C R/B 2.7 01:36:07 10° N 01:39:49 59° WNW 01:43:09 13° SSW
Cosmos 1515 Rocket 3.9 01:37:58 15° SW 01:41:24 47° WNW 01:45:43 10° N
USA 32 4.1 01:36:58 10° N 01:42:16 83° E 01:47:31 10° S
MSX 3.9 01:37:07 10° NNE 01:42:53 69° WNW 01:48:35 10° SSW
CZ-4B R/B 1.2 01:41:01 10° SSE 01:44:12 89° ENE 01:47:28 10° NNW
Cosmos 972 Rocket 4.1 01:40:30 16° SW 01:44:14 52° WNW 01:49:08 10° NNE
Cosmos 858 Rocket 4.5 01:39:54 10° NNW 01:45:09 89° ENE 01:50:21 10° SSE
Cosmos 1605 Rocket 4.1 01:39:09 10° NNW 01:45:22 56° W 01:51:35 10° SSW
IRIDIUM 103 4.3 01:42:03 10° N 01:47:16 68° W 01:52:26 10° S
Meteor 1-11 Rocket 3.7 01:42:01 10° NNW 01:47:54 80° WSW 01:53:38 10° S
IDEFIX/ARIANE 42P 3.0 01:43:52 10° N 01:48:53 45° WNW 01:53:41 11° SW
Cosmos 44 3.7 01:46:35 10° SSW 01:50:58 58° SE 01:55:37 10° NE
USA 276 3.4 01:49:16 17° SW 01:51:07 28° S 01:53:57 10° ESE
Cosmos 2278 3.7 01:46:14 11° SW 01:51:51 79° NW 01:57:36 10° NNE
Cosmos 1707 Rocket 4.2 01:50:27 10° S 01:54:42 60° E 01:59:01 10° NNE
Cosmos 921 Rocket 3.0 01:52:18 10° SSW 01:56:30 82° ESE 02:00:43 10° NNE
ARIANE 5 R/B 3.4 01:53:14 10° N 01:57:46 32° WNW 02:01:50 12° WSW
CZ-2D R/B 4.1 01:56:22 10° NNW 01:58:45 13° NW 02:01:07 10° WNW
Cosmos 2228 Rocket 3.2 01:54:49 10° SSW 01:59:09 56° WNW 02:03:31 10° N
Cosmos 2369 4.0 01:54:43 12° SW 01:59:52 56° NW 02:05:33 10° NNE
Cosmos 1937 Rocket 3.4 01:56:17 10° NNW 02:01:28 72° WSW 02:06:34 10° SSE
Cosmos 1743 3.9 01:58:15 10° N 02:01:58 47° ENE 02:05:39 10° SSE
Cosmos 1151 Rocket 4.5 02:00:39 13° WSW 02:03:09 21° WNW 02:06:28 10° NNW
SAR-Lupe-4 3.5 02:01:12 10° S 02:04:45 65° WSW 02:08:22 10° NNW
ATLAS CENTAUR R/B 3.2 01:52:58 10° WNW 02:04:54 86° SSW 02:09:18 10° ESE
ALOS 3.1 02:01:52 10° NNE 02:06:28 54° E 02:11:03 10° S
Cosmos 1943 Rocket 4.4 02:02:58 10° NNW 02:06:38 17° N 02:10:17 10° NE
PSLV R/B 4.3 02:03:15 10° SSE 02:07:17 68° ENE 02:11:23 10° NNW
Meteor 1-27 Rocket 4.2 02:01:45 10° S 02:07:40 73° E 02:13:34 10° NNE
Cosmos 1733 Rocket 3.0 02:03:51 10° NNW 02:08:16 89° WSW 02:12:37 10° S
SKYMED 2 3.9 02:07:52 10° SSE 02:12:11 71° ENE 02:16:33 10° NNW
Resurs 1-4 Rocket 4.2 02:11:10 10° NNW 02:12:18 11° NW 02:13:26 10° NW
COSMOS 2455 4.1 02:06:48 10° NW 02:12:30 41° NNE 02:18:12 10° E
ATLAS 5 CENTAUR R/B 2.9 02:08:16 10° WNW 02:12:34 36° N 02:17:33 10° ENE
Cosmos 1869 Rocket 4.2 02:09:01 10° NNW 02:12:55 32° W 02:16:46 10° SSW
Cosmos 1536 2.8 02:09:22 10° NNW 02:13:25 62° W 02:17:26 10° S
Cosmos 1725 Rocket 4.5 02:08:45 10° N 02:14:58 68° ENE 02:21:07 10° SSE
SAR-Lupe-1 4.2 02:13:37 10° S 02:17:07 50° WSW 02:20:38 10° NNW
Cosmos 1484 Rocket 3.2 02:14:33 10° NNE 02:18:31 70° ESE 02:22:30 10° S
Cosmos 2100 Rocket 4.1 02:13:37 10° NNW 02:19:58 70° W 02:26:19 10° S
Cosmos 1802 Rocket 4.0 02:16:04 10° NNW 02:22:16 84° W 02:28:30 10° S
Meteor 1-4 Rocket 2.6 02:21:14 10° SSW 02:24:38 56° WNW 02:28:09 10° N
Cosmos 1727 Rocket 4.1 02:18:19 10° SSW 02:24:39 69° WNW 02:31:00 10° N
USA 305 3.3 02:23:05 10° WSW 02:27:17 59° SSE 02:31:28 10° E
Cosmos 1862 Rocket 4.1 02:24:09 10° S 02:28:30 65° E 02:32:51 10° NNE
SJ 16-02 2.5 02:25:39 10° NW 02:29:00 21° W 02:32:20 10° SSW
Meteor 1-31 Rocket 3.0 02:25:27 10° NNE 02:29:17 73° ESE 02:33:06 10° S
Cosmos 1763 Rocket 3.8 02:24:02 10° SSW 02:29:21 78° ESE 02:34:41 10° NNE
PSLV R/B 4.0 02:26:07 10° N 02:30:08 42° WNW 02:34:05 10° SW
NOSS 3-4 (A) 3.9 02:23:30 10° NW 02:30:11 58° SW 02:37:36 10° SSE
NOSS 3-4 (C) 3.9 02:23:37 10° NW 02:30:17 59° SW 02:37:43 10° SSE
Cosmos 2369 Rocket 4.4 02:27:16 10° NW 02:31:06 18° N 02:34:57 10° NE
USA 306 3.2 02:27:09 10° WSW 02:31:20 60° SSE 02:35:33 10° E
Cosmos 2360 Rocket 3.8 02:27:07 10° S 02:32:19 39° ESE 02:37:32 10° NE
